Tracking 19485 objects as of 22-Jan-2019
HD Live streaming from Space Station
objects crossing your sky now

WESTFORD NEEDLES

Track WESTFORD NEEDLES now!
10-day predictions
WESTFORD NEEDLES is classified as:


NORAD ID: 19946
Int'l Code: 1963-014EU
Perigee: 1,914.9 km
Apogee: 5,266.9 km
Inclination: 86.4 °
Period: 164.9 minutes
Semi major axis: 9961 km
RCS: 0.1748 m2 (medium)
Launch date: May 9, 1963
Source: United States (US)
Launch site: AIR FORCE WESTERN TEST RANGE (AFWTR)
aabbcc
Your satellite tracking list
Your tracking list is empty




NASA's NSSDC Master Catalog

Two Line Element Set (TLE):
1 19946U 63014EU  19021.16189368 -.00002009  00000-0 -20877+0 0  9994
2 19946  86.4249 265.3484 1682394 195.4382 332.7786  8.73147979953830
Source of the keplerian elements: AFSPC